Regional Weather Roundup
Issued by NWS Austin/San Antonio, TX

Home | Current Version | Previous Version | Text Only | Print | Product List | Glossary On
Versions: 1 2 3 4 5 6 7 8 9 10 11 12 13 14 15 16 17 18 19 20 21 22 23 24 25 26 27 28 29 30 31 32 33 34 35 36 37 38 39 40 41 42 43 44 45 46 47 48 49 50
000
ASUS44 KEWX 271402
RWREWX
SOUTH TEXAS REGIONAL WEATHER ROUNDUP
NATIONAL WEATHER SERVICE AUSTIN/SAN ANTONIO TX
800 AM CST MON JAN 27 2020

NOTE: "FAIR" INDICATED FEW OR NO CLOUDS BELOW 12,000 FEET WITH NO
SIGNIFICANT WEATHER AND/OR OBSTRUCTIONS TO VISIBILITY.

* - THESE STATIONS ARE NOT NWS OR FAA STATIONS...AND ARE NOT SUBJECT
    TO NWS AND FAA QUALITY CONTROL.

TXZ171-172-183>190-271500-
TEXAS HILL COUNTRY AND EDWARDS PLATEAU

CITY           SKY/WX    TMP DP  RH WIND       PRES   REMARKS
JUNCTION       CLEAR     36  34  92 CALM      30.02R
*LLANO         CLOUDY    41  39  93 CALM      30.06R VSB 3/4
BURNET         CLEAR     45  43  93 CALM      30.05R
*HORSESHOE BAY NOT AVBL
*LAGO VISTA    CLEAR     48  48  99 E5        30.03S FOG     WCI  46
*KERRVILLE     CLEAR     38  36  91 CALM      30.03S
*FREDERICKSBRG CLEAR     38  36  93 W5        30.03R WCI  34
*ROCKSPRINGS   CLEAR     48  45  87 SE10      30.05R WCI  44
*BOERNE        CLEAR     39  39 100 CALM      30.04S
*CASTROVILLE   CLEAR     47  47  99 NW5       30.05R WCI  45
HONDO          CLEAR     45  43  93 NE5       30.03R WCI  43
*UVALDE        CLEAR     49  47  94 NE9       30.03R WCI  45
DEL RIO        CLEAR     47  41  80 CALM      29.99R
*LAUGHLIN AFB  CLEAR     50  45  82 E7        29.98R WCI  47
*SPOFFORD      NOT AVBL
*EAGLE PASS    CLEAR     46  43  87 E7        29.99R WCI  43
CARRIZO SPRGS  CLEAR     43  39  87 CALM      30.00R
*FAITH RANCH   CLEAR     54  52  94 E5        29.99R
$$

TXZ173-191>194-202-209-217>225-228-271500-
CENTRAL AND SOUTH CENTRAL TEXAS

CITY           SKY/WX    TMP DP  RH WIND       PRES   REMARKS
GEORGETOWN     MOCLDY    40  39  97 CALM      30.06R
*TAYLOR        FOG       38  38  99 CALM      30.04S VSB 1
AUSTIN/BERGSTM MOCLDY    45  43  93 CALM      30.04R
AUSTIN/MABRY   CLEAR     47  44  90 CALM      30.04R FOG
*PFLUGERVILLE  CLEAR     46  46 100 N3        30.04S FOG
SAN MARCOS     CLEAR     46  45  96 CALM      30.05R
NEW BRAUNFELS  CLEAR     47  45  93 N3        30.03R
*RANDOLPH AFB  NOT AVBL
*SEGUIN        NOT AVBL
SAN ANTONIO    CLEAR     49  44  83 NW3       30.04R
STINSON FIELD  CLEAR     48  46  93 N3        30.02R
*KELLY FIELD   NOT AVBL
*PLEASANTON    CLEAR     46  44  93 CALM      30.04R
*KENEDY        CLEAR     46  44  95 CALM      30.04R
*LA GRANGE     DRZL/FOG  49  49 100 CALM      30.03R VSB<1/4
*GIDDINGS      FOG       49  49 100 E5        30.05R VSB<1/4 WCI  47
*GONZALES      CLOUDY    48  48 100 CALM      30.04R FOG
$$

TXZ163>164-176>182-195>201-210>213-226-227-235-271500-
SOUTHEAST TEXAS

CITY           SKY/WX    TMP DP  RH WIND       PRES   REMARKS
COLLEGE STN    FOG       50  49  96 E3        30.04R VSB<1/4
*BRYAN         FOG       50  50 100 E3        30.06R VSB<1/4
*CALDWELL      FOG       46 N/A N/A CALM      30.05R VSB<1/4
*CROCKETT      NOT AVBL
*BRENHAM       FOG       53  53 100 SE3       30.05R VSB 1/4
HUNTSVILLE     FOG       52  51  97 E5        30.05R VSB<1/4
CONROE         FOG       53  52  96 E3        30.05R VSB 1
HOUSTON BUSH   FOG       54  52  93 NE6       30.04S VSB 1
HOUSTON HOBBY  CLOUDY    57  52  83 NE6       30.04R FOG
*HOUSTON SW AP CLOUDY    55  54  95 CALM      30.06R FOG
PEARLAND       CLOUDY    57  52  83 E5        30.06R
HOUSTON HOOKS  FOG       52  50  93 NE3       30.05R VSB 1
ELLINGTON FLD  NOT AVBL
SUGAR LAND     CLOUDY    57  54  89 E6        30.04R FOG
*HOUSTON EXEC  FOG       54  54 100 E5        30.06R VSB<1/4
*CLEVELAND MUN FOG       50  50 100 CALM      30.06R VSB<1/4
*WHARTON       CLOUDY    56  55  94 E6        30.04R FOG
*COLUMBUS      HAZE      51  45  79 NE3       30.06R VSB 1/2
*EAGLE LAKE    FOG       57  56  99 E3        30.04S VSB 3/4
$$

TXZ214>216-236>238-271500-
THE UPPER TEXAS COAST

CITY           SKY/WX    TMP DP  RH WIND       PRES   REMARKS
*ORANGE        CLOUDY    55  51  85 NE8       30.05R
PORT ARTHUR    CLOUDY    55  51  86 NE9       30.03R
GALVESTON      CLOUDY    58  54  86 N7        30.06R
ANGLETON       CLOUDY    56  54  93 E8        30.05R FOG
*BAY CITY      CLOUDY    59  59 100 CALM      30.03R FOG
PALACIOS       CLOUDY    58  56  93 E9        30.02R FOG
$$

TXZ229>234-239>247-271500-
TEXAS COASTAL BEND AND RIO GRANDE PLAINS

CITY           SKY/WX    TMP DP  RH WIND       PRES   REMARKS
VICTORIA       FOG       55  54  96 NE3       30.03R VSB 1/4
*BEEVILLE      NOT AVBL
ROCKPORT       FOG       58  54  86 CALM      30.02R VSB<1/4
*PORT ARANSAS  FOG       61  61  98 S5        30.03R VSB 1/4
*PORT LAVACA   NOT AVBL
*INGLESIDE     FOG       56  55  98 W6        30.02R VSB<1/4
CORPUS CHRISTI FOG       53  53 100 CALM      30.03R VSB 1/8
CORPUS NAS     FOG       57  57 100 W7        30.02R VSB 1/4
*ROBSTOWN      FOG       51  50  96 CALM      30.02R VSB 3/4
ALICE          FOG       50  49  96 NE3       30.01R VSB<1/4
KINGSVILLE NAS FOG       53  51  93 E3        30.02R VSB 1/16
COTULLA        CLEAR     52  48  86 E8        30.00R
LAREDO         CLEAR     55  54  96 SE8       29.99R FOG
$$

TXZ248>255-271500-
DEEP SOUTH TEXAS

CITY           SKY/WX    TMP DP  RH WIND       PRES   REMARKS
BROWNSVILLE    FOG       57  56  96 CALM      30.01R VSB 1/4
PORT ISABEL    FOG       54  54 100 CALM      30.00S VSB<1/4
HARLINGEN      FOG       57  57 100 CALM      30.01R VSB<1/4
*HEBBRONVILLE  CLEAR     53  52  99 SW5       30.01R FOG
MCALLEN        CLOUDY    60  57  89 SE7       30.02R FOG
*WESLACO       FOG       56  55  95 CALM      30.01R VSB<1/4
FALFURRIAS     CLOUDY    52  50  93 S3        30.02R VSB 1/4
EDINBURG       CLOUDY    58  57  94 SE5       30.02R FOG
*ZAPATA        NOT AVBL
$$

TXZ213>215-236>238-242>244-246-247-251-254-255-271500-
CMAN STATIONS

STATION/POSITION TIME  TEMP    WIND        PRES    WAVE
                       AIR SEA DIR/SP/G            HT/PER
                 (UTC) (F)     (DEG/KT/KT) (MB)    (FT/S)
SABINE PASS      1318   54 61              1017.8
SEA RIM ST PARK  1300   54      40/  9/ 13 1015.8
NORTH JETTY/GLS  1318   55 60              1015.9
EAGLE POINT      1318   56 61              1016.6
MORGANS POINT    1330   54 60              1017.2
PORT O`CONNOR    1318   59 63              1015.5
PORT ARANSAS     1300   60 61  180/  4/  5 1015.4
MALAQUITE BEACH  1318   57 63              1015.4
BAFFIN BAY       1318   58 65              1016.3
PORT ISABEL      1318   58 65              1016.2
$$




USA.gov is the U.S. government's official web portal to all federal, state and local government web resources and services.